Wind_Speed
24 26 28 30 32 34 37 38 39 41 41 41 42 44 44 43 43 42 40 39 38 37 36 35 35 35 35 35 33 32 32 31 30 30 29 27 26 25 27 28 29 29 28 27
23 26 28 31 33 35 37 39 41 42 43 42 43 44 43 43 42 41 40 38 37 36 36 35 36 37 37 37 37 36 35 34 34 34 34 32 30 29 30 31 33 33 32 31
25 28 31 33 35 37 39 40 41 42 42 42 42 42 41 40 39 37 36 35 34 33 33 34 35 37 39 39 40 39 39 37 37 38 39 36 34 32 32 34 34 35 35 34
27 30 33 36 38 39 42 42 42 42 41 41 40 39 39 35 34 33 32 31 30 30 30 31 33 36 39 41 42 42 41 40 40 40 41 40 39 38 35 35 35 35 36 36
31 34 37 40 42 43 45 45 45 44 43 43 41 40 40 36 34 34 33 32 32 31 31 31 32 35 38 41 44 44 43 43 43 43 44 44 46 45 41 39 37 36 36 35
29 30 32 35 38 40 42 43 44 45 44 44 41 40 41 40 36 36 36 35 35 35 35 34 34 35 37 41 44 46 46 45 45 45 45 47 49 48 46 43 41 40 39 37
26 26 27 28 29 30 33 35 37 37 36 36 37 37 40 38 36 35 35 35 36 36 36 35 35 36 38 40 43 46 46 46 46 46 47 49 50 51 49 47 45 43 41 39
25 26 27 26 25 25 24 23 24 24 24 25 26 28 31 30 31 31 31 32 32 32 32 32 33 34 36 38 40 43 44 44 45 46 47 48 49 48 46 44 42 39 38 36
26 26 26 26 24 22 20 17 14 12 12 14 18 20 21 21 23 25 25 26 26 26 27 28 29 30 31 32 34 36 39 41 42 42 45 45 44 43 41 40 37 36 32 28
26 26 26 26 25 23 20 17 13 8 4 2 6 10 12 14 15 18 19 19 18 17 19 20 21 22 22 23 25 29 31 34 35 35 37 39 39 35 31 28 27 25 20 15
29 29 28 26 25 24 21 19 17 15 10 5 3 1 3 6 8 10 10 10 9 10 10 11 12 14 15 17 18 21 23 25 26 26 25 24 23 20 17 16 14 12 10 11
30 30 29 27 26 25 24 22 19 17 13 10 8 6 3 1 3 6 7 7 6 5 4 3 3 3 5 7 8 10 11 11 11 11 11 10 10 8 7 6 6 6 8 11
29 30 30 29 27 26 24 23 21 18 14 11 9 7 5 4 3 6 8 9 9 7 5 4 5 5 4 4 5 6 6 5 5 5 4 3 3 3 3 3 4 6 8 10
28 29 29 28 27 26 26 24 23 20 16 13 12 10 9 9 9 9 10 11 11 8 6 6 7 6 6 6 6 6 7 6 5 4 3 2 2 0 1 3 4 6 8 10
28 28 28 28 27 26 25 25 24 22 20 18 16 16 15 14 13 12 11 11 9 7 6 5 5 6 5 7 7 7 7 6 5 4 3 2 1 2 3 5 7 8 11 13
28 28 28 27 26 25 24 24 24 22 22 20 19 18 18 15 14 12 11 11 9 6 5 5 4 4 5 7 7 8 7 7 6 6 5 5 5 5 7 8 10 12 14 16
29 27 26 26 25 24 23 21 21 21 21 20 19 19 17 16 14 12 11 9 7 6 5 5 6 5 7 8 8 8 8 7 6 6 6 7 8 9 10 12 13 15 16 17
30 28 25 24 23 23 21 19 18 19 19 19 20 19 18 18 17 14 12 11 10 9 10 10 9 9 9 9 9 9 9 9 9 9 9 10 11 12 13 15 16 17 18 19
32 30 27 25 22 21 20 18 17 17 18 19 19 19 19 18 18 17 15 14 13 12 12 11 11 10 10 10 10 10 10 11 11 12 12 12 13 14 14 15 17 18 19 20
32 32 30 26 23 21 19 17 15 15 16 16 16 16 17 18 18 17 16 15 14 13 12 12 12 12 11 12 12 12 12 12 12 12 12 12 13 13 14 15 17 18 19 19
32 33 32 29 24 21 18 16 14 13 13 14 14 15 16 17 16 15 15 14 14 14 13 13 13 13 13 13 13 13 13 13 13 13 13 13 13 13 14 15 16 16 17 18
31 33 34 32 27 22 18 15 13 12 11 11 12 13 14 14 14 14 14 14 14 14 14 14 14 14 14 15 15 15 15 15 15 15 15 15 15 15 16 16 15 15 14 15
28 31 33 34 29 24 20 16 13 11 10 9 10 11 12 12 12 12 13 13 14 15 15 16 16 16 17 17 17 16 16 16 16 17 17 17 17 17 17 17 16 15 15 15
24 27 30 32 32 27 22 17 14 12 10 8 8 9 9 10 11 11 11 12 14 14 15 16 17 17 18 18 17 17 17 17 17 18 18 19 19 19 18 18 18 17 17 17
20 23 26 29 31 29 25 19 15 12 10 8 7 7 8 8 9 10 10 11 12 14 15 16 16 17 18 18 18 18 18 17 17 18 18 19 19 20 20 19 19 20 19 19
17 19 22 25 28 28 26 22 17 14 11 9 8 7 7 7 7 8 9 10 11 12 14 14 15 16 17 17 17 18 18 17 17 17 18 18 19 20 20 20 21 21 21 21
Wind_Direction
269 269 268 268 267 267 266 266 265 265 264 263 263 263 264 264 264 264 263 263 263 262 261 261 261 263 265 267 269 269 270 271 271 270 269 270 271 268 266 264 259 255 251 250
276 275 276 275 274 272 271 270 269 269 268 266 265 265 265 265 265 265 265 264 263 263 262 261 260 259 259 260 263 264 266 269 271 271 272 273 273 273 273 269 263 257 252 250
283 285 283 282 280 278 276 274 272 272 272 271 270 269 268 267 266 265 264 263 262 261 262 262 262 260 257 256 257 259 261 264 268 271 272 274 275 275 275 275 269 261 255 251
296 295 292 289 285 282 280 277 276 274 273 272 271 271 269 267 267 265 264 263 262 263 264 265 265 263 258 254 254 254 256 261 265 268 269 271 271 271 273 273 270 265 259 254
306 304 300 295 289 284 280 278 275 274 272 271 270 270 270 267 267 267 267 266 266 267 269 271 271 268 262 255 251 251 252 256 260 263 266 266 266 265 267 269 269 267 263 258
320 317 312 304 296 289 283 278 275 271 269 268 267 268 268 268 268 268 269 269 270 272 274 277 277 273 265 257 251 249 249 252 256 258 262 263 263 265 267 267 267 264 261 258
348 343 336 328 317 307 297 289 283 277 271 266 263 262 262 264 265 265 267 269 272 274 276 277 277 273 266 258 252 248 248 250 253 257 260 262 264 266 267 269 268 263 258 254
351 347 345 342 336 328 321 309 292 279 267 259 256 254 257 258 257 256 258 262 266 269 271 273 273 270 264 258 254 250 249 251 254 258 262 264 267 271 272 269 265 257 250 246
359 355 355 356 354 349 343 336 325 304 280 258 249 250 252 252 251 248 248 251 255 259 263 266 268 268 265 261 257 255 252 254 258 262 267 269 273 275 273 265 255 246 238 235
9 6 4 5 8 8 9 12 15 11 355 270 251 249 251 250 249 244 241 241 245 251 257 262 265 268 268 266 262 259 258 259 263 268 272 271 273 268 257 246 236 230 227 229
19 17 16 15 17 20 23 28 35 40 45 45 38 331 270 253 237 223 217 217 225 232 247 256 266 269 267 265 263 259 258 261 265 268 270 266 259 243 224 216 217 221 229 240
23 23 22 22 23 24 27 33 39 43 45 49 53 36 29 83 182 178 179 171 169 181 203 242 256 243 239 251 246 239 241 243 245 245 241 224 215 208 210 217 223 232 245 251
22 24 25 26 27 27 30 34 37 40 45 48 49 38 35 54 102 142 145 145 139 133 137 131 120 110 113 126 142 136 140 152 163 167 172 171 176 188 217 248 255 255 257 260
23 24 25 26 27 29 32 35 36 36 39 46 52 56 63 68 81 106 125 137 136 127 112 101 97 92 90 84 85 86 93 98 98 98 89 105 106 161 256 266 271 269 270 274
24 24 25 27 28 30 32 34 35 38 44 53 60 64 71 74 82 94 111 123 124 111 95 86 74 64 55 49 46 45 45 46 41 29 16 10 332 296 286 281 277 281 283 284
23 24 25 27 29 32 34 36 37 39 46 55 62 65 70 74 84 92 100 110 116 110 87 67 51 32 28 25 24 23 21 12 2 352 346 336 313 297 287 283 282 283 286 286
23 22 23 26 28 31 34 37 39 42 50 55 60 64 68 69 81 91 96 95 98 89 69 51 46 38 26 24 21 19 16 11 2 349 334 319 306 299 293 289 287 287 288 288
24 23 22 24 26 30 32 39 46 48 53 56 59 65 70 73 77 80 79 79 79 74 68 60 55 48 41 34 25 16 9 1 352 341 329 318 309 303 298 295 293 292 291 290
27 25 24 24 26 29 32 39 47 54 58 60 62 66 69 71 71 70 70 70 68 66 62 57 53 48 42 35 26 16 6 356 347 338 330 322 314 309 305 301 298 296 294 292
29 28 27 25 25 27 31 39 49 57 62 63 64 66 67 65 64 62 60 59 57 54 51 48 43 40 34 27 20 14 8 2 357 350 343 336 328 321 314 309 305 301 298 296
29 29 28 27 27 29 32 40 48 56 63 65 63 63 62 61 59 56 54 54 53 49 46 43 38 33 29 26 24 23 22 19 14 10 4 356 348 340 333 326 320 313 307 304
27 27 28 27 28 30 35 42 51 58 65 65 61 59 59 59 57 57 56 53 50 47 45 42 40 39 37 36 36 36 33 29 24 19 14 9 4 359 354 348 342 335 326 319
23 25 26 27 29 32 36 43 51 59 64 64 61 59 59 58 57 56 54 51 48 46 45 44 44 44 43 43 43 42 37 33 30 27 25 23 19 15 10 5 359 352 344 336
17 20 23 25 26 29 33 40 48 56 61 64 63 60 56 55 53 53 52 49 47 46 45 44 45 45 45 46 47 43 40 37 34 33 32 29 26 23 19 15 10 4 356 348
9 14 19 22 24 27 31 37 44 51 55 60 63 59 53 49 48 49 49 48 47 47 46 45 46 46 46 46 45 43 40 37 37 36 34 32 29 26 22 18 14 10 5 359
358 7 14 19 22 25 29 33 37 42 48 56 63 60 53 48 48 47 47 47 47 47 47 47 47 46 45 44 43 41 38 35 34 33 31 29 27 24 22 19 16 13 11 10
Height
5876 5875 5873 5871 5870 5869 5867 5865 5864 5862 5862 5862 5861 5860 5860 5861 5862 5863 5864 5865 5866 5867 5868 5869 5869 5869 5869 5869 5870 5871 5871 5871 5871 5870 5870 5870 5871 5871 5871 5871 5870 5870 5871 5871
5871 5869 5867 5864 5862 5860 5857 5856 5854 5852 5851 5851 5850 5849 5849 5850 5851 5852 5854 5855 5856 5857 5858 5860 5861 5862 5862 5862 5863 5863 5863 5863 5863 5863 5862 5863 5864 5864 5864 5864 5863 5862 5863 5864
5866 5864 5860 5857 5854 5851 5847 5845 5843 5842 5840 5839 5840 5839 5839 5840 5841 5842 5844 5845 5847 5848 5849 5850 5851 5853 5854 5854 5855 5855 5856 5856 5856 5855 5854 5855 5855 5856 5856 5856 5855 5855 5856 5857
5861 5857 5852 5848 5844 5840 5836 5834 5832 5830 5830 5829 5830 5829 5829 5830 5831 5832 5834 5835 5837 5839 5841 5842 5842 5844 5845 5845 5846 5847 5848 5848 5848 5847 5846 5846 5846 5846 5847 5848 5849 5849 5848 5849
5853 5849 5844 5838 5833 5829 5824 5822 5820 5818 5817 5817 5818 5818 5820 5822 5822 5823 5824 5826 5828 5830 5832 5833 5834 5835 5835 5836 5837 5838 5839 5840 5840 5840 5840 5838 5834 5835 5837 5839 5841 5842 5842 5842
5846 5840 5834 5826 5819 5814 5810 5808 5805 5804 5803 5805 5807 5808 5808 5811 5813 5814 5815 5816 5819 5821 5823 5824 5825 5826 5826 5827 5828 5829 5830 5832 5833 5833 5832 5830 5826 5824 5826 5829 5831 5833 5834 5836
5840 5834 5826 5819 5811 5803 5798 5795 5792 5790 5790 5792 5793 5795 5795 5800 5801 5803 5805 5807 5809 5812 5814 5815 5816 5816 5816 5817 5818 5820 5821 5823 5824 5825 5825 5823 5820 5818 5818 5820 5822 5823 5825 5827
5838 5832 5823 5814 5806 5798 5791 5785 5782 5780 5780 5780 5782 5783 5785 5788 5790 5792 5794 5797 5799 5802 5804 5805 5806 5807 5807 5807 5809 5811 5813 5814 5815 5816 5816 5815 5814 5811 5811 5811 5812 5814 5815 5817
5836 5829 5821 5812 5803 5795 5787 5781 5776 5773 5771 5773 5774 5776 5778 5780 5781 5783 5786 5789 5791 5794 5796 5797 5798 5798 5799 5799 5801 5802 5804 5806 5807 5808 5807 5806 5805 5804 5803 5804 5805 5806 5807 5809
5835 5828 5820 5812 5803 5795 5788 5781 5776 5772 5770 5771 5772 5772 5774 5774 5775 5777 5780 5783 5786 5788 5791 5792 5792 5792 5792 5793 5794 5795 5796 5798 5799 5800 5799 5798 5798 5796 5796 5797 5798 5800 5802 5804
5834 5828 5820 5812 5804 5797 5790 5784 5778 5774 5772 5771 5771 5774 5771 5771 5772 5774 5776 5779 5782 5785 5787 5787 5787 5787 5787 5787 5788 5788 5789 5790 5792 5792 5792 5791 5792 5792 5792 5793 5794 5796 5798 5801
5835 5829 5821 5814 5807 5799 5793 5787 5782 5779 5776 5773 5773 5776 5771 5771 5771 5772 5775 5777 5780 5783 5784 5785 5785 5784 5784 5783 5783 5784 5784 5785 5786 5787 5787 5788 5788 5789 5790 5791 5792 5794 5796 5798
5837 5831 5824 5817 5812 5805 5798 5792 5787 5783 5780 5777 5776 5778 5773 5772 5772 5773 5775 5777 5780 5782 5784 5784 5784 5783 5782 5782 5781 5781 5782 5783 5784 5785 5786 5786 5786 5787 5788 5789 5790 5791 5793 5794
5838 5832 5827 5821 5814 5807 5801 5796 5791 5787 5783 5780 5778 5777 5775 5774 5774 5775 5777 5779 5781 5783 5784 5784 5784 5783 5783 5783 5782 5782 5782 5783 5783 5784 5785 5785 5785 5786 5786 5787 5788 5789 5790 5791
5840 5834 5828 5822 5816 5811 5806 5801 5796 5792 5788 5785 5782 5780 5779 5779 5779 5779 5780 5781 5783 5784 5785 5785 5785 5785 5784 5784 5783 5783 5783 5783 5783 5784 5784 5785 5785 5785 5786 5786 5786 5787 5787 5786
5841 5836 5831 5825 5820 5815 5810 5805 5801 5798 5794 5790 5788 5786 5784 5784 5783 5784 5784 5785 5786 5787 5787 5787 5787 5786 5786 5786 5785 5785 5784 5784 5784 5784 5784 5784 5785 5784 5784 5784 5784 5783 5782 5781
5843 5838 5833 5828 5823 5818 5814 5810 5807 5804 5800 5797 5794 5793 5790 5789 5789 5789 5789 5789 5789 5789 5789 5789 5789 5788 5788 5787 5787 5787 5786 5786 5785 5785 5784 5784 5783 5782 5782 5781 5780 5779 5778 5776
5846 5840 5835 5831 5827 5822 5821 5814 5812 5809 5806 5803 5801 5799 5797 5796 5795 5794 5794 5794 5794 5793 5793 5792 5792 5791 5790 5789 5789 5788 5787 5786 5785 5784 5783 5782 5781 5780 5779 5777 5776 5774 5772 5771
5849 5843 5838 5833 5829 5825 5822 5818 5815 5813 5811 5809 5807 5805 5804 5802 5801 5800 5799 5798 5798 5797 5796 5796 5795 5794 5793 5792 5790 5789 5788 5786 5785 5783 5782 5780 5778 5777 5775 5773 5771 5769 5767 5765
5852 5846 5841 5835 5831 5827 5825 5821 5818 5817 5815 5814 5812 5811 5809 5807 5806 5806 5804 5803 5801 5800 5799 5798 5797 5796 5795 5793 5791 5790 5788 5786 5784 5782 5779 5777 5775 5773 5771 5769 5767 5764 5762 5759
5856 5850 5844 5838 5834 5830 5826 5823 5821 5821 5820 5817 5816 5815 5813 5812 5811 5810 5808 5807 5805 5804 5802 5801 5799 5798 5796 5794 5792 5790 5788 5786 5783 5781 5778 5776 5773 5771 5768 5765 5763 5760 5757 5755
5859 5854 5848 5842 5836 5834 5828 5825 5824 5823 5821 5820 5819 5818 5817 5816 5815 5814 5812 5810 5809 5807 5805 5803 5802 5800 5798 5796 5794 5792 5789 5787 5784 5781 5778 5775 5772 5769 5766 5763 5760 5757 5754 5751
5862 5858 5852 5847 5843 5836 5831 5828 5826 5824 5823 5822 5821 5821 5820 5819 5818 5817 5815 5814 5812 5810 5808 5806 5804 5802 5800 5798 5796 5794 5791 5789 5786 5783 5780 5776 5773 5770 5767 5763 5760 5756 5753 5749
5865 5860 5856 5850 5845 5839 5834 5830 5828 5826 5824 5824 5823 5822 5822 5821 5820 5819 5818 5816 5814 5813 5811 5809 5807 5805 5803 5801 5799 5797 5794 5791 5788 5785 5782 5779 5775 5772 5768 5764 5760 5756 5752 5748
5866 5862 5858 5854 5849 5843 5838 5834 5830 5828 5826 5825 5824 5824 5823 5823 5822 5821 5819 5818 5817 5815 5813 5811 5809 5808 5806 5804 5802 5800 5797 5794 5791 5788 5785 5782 5778 5774 5770 5766 5762 5757 5752 5747
5867 5864 5861 5857 5853 5848 5843 5838 5834 5830 5828 5826 5826 5825 5824 5824 5823 5822 5821 5820 5818 5817 5815 5814 5812 5810 5809 5807 5805 5803 5800 5797 5794 5791 5788 5784 5781 5777 5773 5769 5764 5759 5753 5747